This is the latest recevied weather packets stored in our database for station/object KB9YVI-11. If no packets are shown the sender has not sent any weather packets the latest 10 day(s).
| Time | Temp. | Humidity | Pressure | Rain* | Wind** | Luminosity | Snow |
|---|---|---|---|---|---|---|---|
| 1788023231 | 28.33° C | 72% | 0 hPa | 0 mm | - | - | - |
| 1788022931 | 28.33° C | 72% | 0 hPa | 0 mm | - | - | - |
| 1788022631 | 28.33° C | 71% | 0 hPa | 0 mm | - | - | - |
| 1788022333 | 28.33° C | 72% | 0 hPa | 0 mm | - | - | - |
| 1788021733 | 27.78° C | 74% | 0 hPa | 0 mm | - | - | - |
| 1788020831 | 27.22° C | 75% | 0 hPa | 0 mm | - | - | - |
| 1788020530 | 27.78° C | 72% | 0 hPa | 0 mm | - | - | - |
| 1788020231 | 27.78° C | 69% | 0 hPa | 0 mm | - | - | - |
| 1788019931 | 27.78° C | 72% | 0 hPa | 0 mm | - | - | - |
| 1788019631 | 27.22° C | 73% | 0 hPa | 0 mm | - | - | - |
| 1788019332 | 27.22° C | 73% | 0 hPa | 0 mm | - | - | - |
| 1788018432 | 27.22° C | 83% | 0 hPa | 0 mm | - | - | - |
| 1788017532 | 26.11° C | 89% | 0 hPa | 0 mm | - | - | - |
| 1788017232 | 25.56° C | 92% | 0 hPa | 0 mm | - | - | - |
| 1788016930 | 25.56° C | 93% | 0 hPa | 0 mm | - | - | - |
| 1788016032 | 25° C | 98% | 0 hPa | 0 mm | - | - | - |
| 1788015432 | 24.44° C | 100% | 0 hPa | 0 mm | - | - | - |
| 1788013330 | 22.22° C | 100% | 0 hPa | 0 mm | - | - | - |
| 1788013040 | 21.67° C | 100% | 0 hPa | 0 mm | - | - | - |
| 1788012432 | 20.56° C | 100% | 0 hPa | 0 mm | - | - | - |
| 1788011832 | 19.44° C | 100% | 0 hPa | 0 mm | - | - | - |
| 1788010932 | 18.89° C | 100% | 0 hPa | 0 mm | - | - | - |
| 1788009731 | 17.78° C | 100% | 0 hPa | 0 mm | - | - | - |
| 1788008832 | 17.22° C | 100% | 0 hPa | 0 mm | - | - | - |
| 1788008532 | 16.67° C | 100% | 0 hPa | 0 mm | - | - | - |
* Rain latest hour (hover to see other rain measurements)
** Current wind speed in m/s (hover to see current wind gust speed)